TAM3915 SBRJ-SBSP

Flight info

Callsign TAM3915
Flight time 0h 43m
Altitude 26000
Route NAXOP UZ45 IBDAL
Aircraft A319/M-SDE3FGHIRWY/LB1

Departure

Time 2026-05-03 23:31
Airport Santos Dumont Airport (SBRJ)

Arrival

Time 2026-05-04 00:14
Airport Congonhas–Deputado Freitas Nobre Airport (SBSP)
Time Latitude Longitude Altitude Speed Heading
2026-05-03 23:13 -22.91136 -43.16591 22 ft 0 kts 267°
2026-05-03 23:23 -22.91136 -43.16581 22 ft 4 kts 268°
2026-05-03 23:23 -22.91135 -43.16552 25 ft 4 kts 264°
2026-05-03 23:24 -22.91129 -43.16526 22 ft 4 kts 226°
2026-05-03 23:24 -22.91114 -43.16522 24 ft 4 kts 162°
2026-05-03 23:24 -22.91092 -43.16529 22 ft 1 kts 162°
2026-05-03 23:26 -22.91094 -43.16529 22 ft 1 kts 162°
2026-05-03 23:27 -22.91112 -43.16523 22 ft 4 kts 162°
2026-05-03 23:27 -22.91148 -43.16517 22 ft 7 kts 176°
2026-05-03 23:27 -22.91204 -43.16513 22 ft 9 kts 176°
2026-05-03 23:27 -22.91280 -43.16509 22 ft 12 kts 176°
2026-05-03 23:28 -22.91372 -43.16503 22 ft 12 kts 176°
2026-05-03 23:28 -22.91436 -43.16467 22 ft 12 kts 136°
2026-05-03 23:28 -22.91477 -43.16425 22 ft 0 kts 137°
2026-05-03 23:29 -22.91479 -43.16424 22 ft 2 kts 137°
2026-05-03 23:29 -22.91495 -43.16407 22 ft 6 kts 137°
2026-05-03 23:30 -22.91554 -43.16347 20 ft 15 kts 136°
2026-05-03 23:30 -22.91628 -43.16267 20 ft 9 kts 135°
2026-05-03 23:30 -22.91612 -43.16247 20 ft 5 kts
2026-05-03 23:30 -22.91599 -43.16248 20 ft 2 kts 356°
2026-05-03 23:31 -22.91265 -43.16269 20 ft 97 kts 356°
2026-05-03 23:31 -22.90328 -43.16331 254 ft 152 kts 356°
2026-05-03 23:31 -22.89254 -43.16282 1043 ft 159 kts 17°
2026-05-03 23:31 -22.88355 -43.15567 1690 ft 169 kts 54°
2026-05-03 23:32 -22.87974 -43.14287 2011 ft 192 kts 82°
2026-05-03 23:32 -22.87767 -43.12754 2350 ft 218 kts 82°
2026-05-03 23:32 -22.87574 -43.11077 3042 ft 228 kts 93°
2026-05-03 23:32 -22.87787 -43.09384 3956 ft 226 kts 104°
2026-05-03 23:33 -22.88044 -43.07727 4933 ft 226 kts 103°
2026-05-03 23:33 -22.88423 -43.06072 5823 ft 226 kts 119°
2026-05-03 23:33 -22.89385 -43.04750 6627 ft 228 kts 144°
2026-05-03 23:33 -22.90873 -43.04009 7074 ft 248 kts 171°
2026-05-03 23:34 -22.92648 -43.03767 7621 ft 265 kts 184°
2026-05-03 23:34 -22.94446 -43.04260 8431 ft 272 kts 208°
2026-05-03 23:34 -22.95979 -43.05483 9312 ft 276 kts 220°
2026-05-03 23:34 -22.97469 -43.06825 10196 ft 280 kts 220°
2026-05-03 23:35 -22.99012 -43.08212 10709 ft 299 kts 220°
2026-05-03 23:35 -23.00678 -43.09706 10971 ft 322 kts 220°
2026-05-03 23:35 -23.02454 -43.11293 11402 ft 336 kts 220°
2026-05-03 23:35 -23.04277 -43.12920 12052 ft 342 kts 220°
2026-05-03 23:36 -23.06124 -43.14572 12731 ft 346 kts 220°
2026-05-03 23:36 -23.07994 -43.16239 13419 ft 349 kts 220°
2026-05-03 23:36 -23.09893 -43.17904 14081 ft 353 kts 220°
2026-05-03 23:36 -23.11817 -43.19576 14734 ft 356 kts 220°
2026-05-03 23:37 -23.13760 -43.21257 15373 ft 359 kts 220°
2026-05-03 23:37 -23.15719 -43.22953 16008 ft 362 kts 220°
2026-05-03 23:37 -23.17695 -43.24667 16636 ft 365 kts 221°
2026-05-03 23:37 -23.19683 -43.26395 17254 ft 367 kts 221°
2026-05-03 23:38 -23.21686 -43.28139 17852 ft 370 kts 221°
2026-05-03 23:38 -23.23703 -43.29899 18443 ft 373 kts 221°
2026-05-03 23:38 -23.25734 -43.31674 19043 ft 376 kts 221°
2026-05-03 23:38 -23.27749 -43.33437 19656 ft 377 kts 222°
2026-05-03 23:39 -23.29823 -43.35250 20300 ft 378 kts 222°
2026-05-03 23:39 -23.31738 -43.37198 20908 ft 376 kts 231°
2026-05-03 23:39 -23.33263 -43.39493 21508 ft 374 kts 242°
2026-05-03 23:39 -23.34348 -43.42057 22055 ft 374 kts 251°
2026-05-03 23:40 -23.34822 -43.43853 22410 ft 374 kts 256°
2026-05-03 23:40 -23.35462 -43.46604 22923 ft 375 kts 255°
2026-05-03 23:40 -23.36106 -43.49348 23416 ft 375 kts 255°
2026-05-03 23:40 -23.36756 -43.52104 23882 ft 376 kts 255°
2026-05-03 23:41 -23.37412 -43.54872 24335 ft 377 kts 255°
2026-05-03 23:41 -23.38062 -43.57634 24799 ft 378 kts 255°
2026-05-03 23:41 -23.38711 -43.60408 25225 ft 379 kts 255°
2026-05-03 23:41 -23.39360 -43.63191 25633 ft 380 kts 256°
2026-05-03 23:42 -23.40007 -43.65984 26053 ft 381 kts 256°
2026-05-03 23:42 -23.40656 -43.68778 26192 ft 380 kts 256°
2026-05-03 23:42 -23.41304 -43.71546 26219 ft 376 kts 256°
2026-05-03 23:42 -23.41946 -43.74294 26221 ft 374 kts 256°
2026-05-03 23:43 -23.42584 -43.77032 26220 ft 372 kts 256°
2026-05-03 23:43 -23.43219 -43.79762 26221 ft 372 kts 256°
2026-05-03 23:43 -23.43853 -43.82491 26220 ft 372 kts 256°
2026-05-03 23:43 -23.44478 -43.85187 26221 ft 372 kts 256°
2026-05-03 23:44 -23.45111 -43.87917 26220 ft 372 kts 256°
2026-05-03 23:44 -23.45742 -43.90647 26217 ft 372 kts 256°
2026-05-03 23:44 -23.46374 -43.93378 26218 ft 372 kts 256°
2026-05-03 23:44 -23.47005 -43.96109 26219 ft 372 kts 256°
2026-05-03 23:45 -23.47635 -43.98839 26216 ft 372 kts 256°
2026-05-03 23:45 -23.48263 -44.01567 26218 ft 371 kts 256°
2026-05-03 23:45 -23.48891 -44.04294 26214 ft 371 kts 256°
2026-05-03 23:45 -23.49521 -44.07021 26214 ft 371 kts 256°
2026-05-03 23:46 -23.50149 -44.09748 26212 ft 371 kts 256°
2026-05-03 23:46 -23.50777 -44.12477 26212 ft 372 kts 256°
2026-05-03 23:46 -23.51406 -44.15207 26214 ft 372 kts 256°
2026-05-03 23:46 -23.52036 -44.17937 26215 ft 372 kts 256°
2026-05-03 23:47 -23.52667 -44.20668 26216 ft 372 kts 256°
2026-05-03 23:47 -23.53295 -44.23394 26217 ft 372 kts 256°
2026-05-03 23:47 -23.53921 -44.26127 26217 ft 372 kts 256°
2026-05-03 23:47 -23.54547 -44.28860 26219 ft 373 kts 256°
2026-05-03 23:48 -23.55182 -44.31646 26231 ft 384 kts 256°
2026-05-03 23:48 -23.55836 -44.34511 26231 ft 395 kts 256°
2026-05-03 23:48 -23.56505 -44.37448 26231 ft 404 kts 256°
2026-05-03 23:48 -23.57185 -44.40448 26229 ft 412 kts 256°
2026-05-03 23:49 -23.57881 -44.43508 26230 ft 418 kts 256°
2026-05-03 23:49 -23.58587 -44.46604 26230 ft 425 kts 256°
2026-05-03 23:49 -23.59302 -44.49746 26230 ft 429 kts 256°
2026-05-03 23:49 -23.60013 -44.52865 26230 ft 430 kts 256°
2026-05-03 23:50 -23.60734 -44.56029 26229 ft 430 kts 256°
2026-05-03 23:50 -23.61454 -44.59194 26229 ft 430 kts 256°
2026-05-03 23:50 -23.62174 -44.62360 26228 ft 430 kts 256°
2026-05-03 23:50 -23.62893 -44.65529 26230 ft 431 kts 256°
2026-05-03 23:51 -23.63609 -44.68700 26230 ft 431 kts 256°
2026-05-03 23:51 -23.64326 -44.71871 26229 ft 431 kts 256°
2026-05-03 23:51 -23.65044 -44.75044 26231 ft 431 kts 256°
2026-05-03 23:51 -23.65762 -44.78219 26233 ft 431 kts 256°
2026-05-03 23:52 -23.66480 -44.81394 26234 ft 431 kts 256°
2026-05-03 23:52 -23.67195 -44.84569 26236 ft 431 kts 256°
2026-05-03 23:52 -23.67908 -44.87743 26237 ft 431 kts 256°
2026-05-03 23:52 -23.68622 -44.90917 26238 ft 431 kts 256°
2026-05-03 23:53 -23.69335 -44.94090 26239 ft 430 kts 256°
2026-05-03 23:53 -23.70047 -44.97261 26238 ft 430 kts 256°
2026-05-03 23:53 -23.70756 -45.00435 26235 ft 430 kts 256°
2026-05-03 23:53 -23.71463 -45.03599 26233 ft 430 kts 256°
2026-05-03 23:54 -23.72171 -45.06768 26231 ft 430 kts 256°
2026-05-03 23:54 -23.72876 -45.09936 26227 ft 430 kts 256°
2026-05-03 23:54 -23.73579 -45.13104 26225 ft 430 kts 256°
2026-05-03 23:54 -23.74285 -45.16279 26225 ft 429 kts 256°
2026-05-03 23:55 -23.74988 -45.19441 26118 ft 430 kts 256°
2026-05-03 23:55 -23.75694 -45.22616 25865 ft 431 kts 256°
2026-05-03 23:55 -23.76402 -45.25801 25614 ft 431 kts 256°
2026-05-03 23:55 -23.77106 -45.28981 25364 ft 432 kts 256°
2026-05-03 23:56 -23.77811 -45.32169 25114 ft 433 kts 256°
2026-05-03 23:56 -23.78518 -45.35370 24867 ft 435 kts 256°
2026-05-03 23:56 -23.79216 -45.38539 24617 ft 434 kts 256°
2026-05-03 23:56 -23.79742 -45.41824 24364 ft 434 kts 262°
2026-05-03 23:57 -23.79935 -45.45114 24116 ft 434 kts 264°
2026-05-03 23:57 -23.80097 -45.48360 23865 ft 433 kts 264°
2026-05-03 23:57 -23.80267 -45.51640 23615 ft 432 kts 264°
2026-05-03 23:57 -23.80438 -45.54912 23365 ft 431 kts 264°
2026-05-03 23:58 -23.80609 -45.58176 23114 ft 430 kts 264°
2026-05-03 23:58 -23.80780 -45.61438 22865 ft 430 kts 264°
2026-05-03 23:58 -23.80951 -45.64698 22616 ft 430 kts 264°
2026-05-03 23:58 -23.81118 -45.67956 22365 ft 430 kts 264°
2026-05-03 23:59 -23.81284 -45.71207 22114 ft 428 kts 265°
2026-05-03 23:59 -23.81447 -45.74450 21881 ft 428 kts 265°
2026-05-03 23:59 -23.81609 -45.77690 21490 ft 427 kts 265°
2026-05-03 23:59 -23.81770 -45.80919 21074 ft 425 kts 265°
2026-05-04 00:00 -23.81932 -45.84139 20648 ft 424 kts 265°
2026-05-04 00:00 -23.82092 -45.87355 20243 ft 424 kts 265°
2026-05-04 00:00 -23.82250 -45.90565 19827 ft 423 kts 266°
2026-05-04 00:00 -23.82406 -45.93767 19420 ft 422 kts 266°
2026-05-04 00:01 -23.82560 -45.96965 19012 ft 422 kts 266°
2026-05-04 00:01 -23.82712 -46.00152 18600 ft 421 kts 267°
2026-05-04 00:01 -23.82864 -46.03344 18185 ft 420 kts 267°
2026-05-04 00:01 -23.83018 -46.06527 17770 ft 420 kts 267°
2026-05-04 00:02 -23.83173 -46.09707 17361 ft 419 kts 267°
2026-05-04 00:02 -23.83325 -46.12839 16953 ft 417 kts 267°
2026-05-04 00:02 -23.83477 -46.16000 16547 ft 416 kts 267°
2026-05-04 00:02 -23.83627 -46.19185 16135 ft 414 kts 267°
2026-05-04 00:03 -23.83773 -46.22319 15726 ft 413 kts 267°
2026-05-04 00:03 -23.83919 -46.25405 15330 ft 411 kts 267°
2026-05-04 00:03 -23.84070 -46.28556 14907 ft 409 kts 267°
2026-05-04 00:03 -23.84215 -46.31611 14500 ft 408 kts 267°
2026-05-04 00:04 -23.84361 -46.34699 14099 ft 406 kts 266°
2026-05-04 00:04 -23.84508 -46.37776 13703 ft 405 kts 266°
2026-05-04 00:04 -23.84651 -46.40841 13312 ft 404 kts 266°
2026-05-04 00:04 -23.84790 -46.43903 12909 ft 402 kts 266°
2026-05-04 00:05 -23.84928 -46.46942 12516 ft 401 kts 266°
2026-05-04 00:05 -23.85065 -46.49977 12127 ft 399 kts 266°
2026-05-04 00:05 -23.85204 -46.52998 11735 ft 398 kts 266°
2026-05-04 00:05 -23.85342 -46.56011 11344 ft 397 kts 267°
2026-05-04 00:06 -23.85130 -46.59007 10957 ft 397 kts 281°
2026-05-04 00:06 -23.84201 -46.61830 10564 ft 396 kts 297°
2026-05-04 00:06 -23.82631 -46.64251 10285 ft 384 kts 313°
2026-05-04 00:06 -23.80622 -46.66066 10152 ft 366 kts 326°
2026-05-04 00:07 -23.78550 -46.67495 10028 ft 338 kts 327°
2026-05-04 00:07 -23.76628 -46.68824 9901 ft 316 kts 327°
2026-05-04 00:07 -23.74830 -46.70078 9673 ft 301 kts 327°
2026-05-04 00:07 -23.73086 -46.71297 9314 ft 292 kts 327°
2026-05-04 00:08 -23.71386 -46.72482 9230 ft 292 kts 327°
2026-05-04 00:08 -23.69667 -46.73678 8877 ft 292 kts 327°
2026-05-04 00:08 -23.67969 -46.74855 8454 ft 291 kts 327°
2026-05-04 00:08 -23.66263 -46.76037 8079 ft 288 kts 328°
2026-05-04 00:09 -23.64589 -46.77199 7721 ft 283 kts 328°
2026-05-04 00:09 -23.62932 -46.78347 7403 ft 281 kts 328°
2026-05-04 00:09 -23.61282 -46.79489 7081 ft 281 kts 328°
2026-05-04 00:09 -23.59643 -46.80621 6760 ft 276 kts 330°
2026-05-04 00:10 -23.57893 -46.81289 6448 ft 263 kts 357°
2026-05-04 00:10 -23.56141 -46.80965 6164 ft 253 kts 27°
2026-05-04 00:10 -23.54797 -46.79816 5866 ft 243 kts 55°
2026-05-04 00:10 -23.53888 -46.78306 5582 ft 235 kts 60°
2026-05-04 00:11 -23.53028 -46.76833 5309 ft 226 kts 60°
2026-05-04 00:11 -23.52348 -46.75343 5014 ft 216 kts 79°
2026-05-04 00:11 -23.52371 -46.73771 4795 ft 204 kts 108°
2026-05-04 00:11 -23.53039 -46.72448 4609 ft 199 kts 133°
2026-05-04 00:12 -23.54128 -46.71547 4402 ft 196 kts 147°
2026-05-04 00:12 -23.55267 -46.70764 4150 ft 191 kts 147°
2026-05-04 00:12 -23.56343 -46.70022 3905 ft 179 kts 147°
2026-05-04 00:12 -23.57356 -46.69322 3684 ft 161 kts 148°
2026-05-04 00:13 -23.58226 -46.68720 3505 ft 140 kts 148°
2026-05-04 00:13 -23.59022 -46.68168 3319 ft 129 kts 148°
2026-05-04 00:13 -23.59757 -46.67659 3163 ft 125 kts 148°
2026-05-04 00:13 -23.60487 -46.67155 3004 ft 124 kts 148°
2026-05-04 00:14 -23.61213 -46.66652 2844 ft 124 kts 148°
2026-05-04 00:14 -23.61940 -46.66149 2670 ft 124 kts 148°
2026-05-04 00:14 -23.62623 -46.65676 2605 ft 95 kts 148°
2026-05-04 00:14 -23.62962 -46.65442 2609 ft 38 kts 148°
2026-05-04 00:15 -23.63133 -46.65372 2609 ft 20 kts 191°
2026-05-04 00:15 -23.63163 -46.65446 2602 ft 15 kts 314°
2026-05-04 00:15 -23.63065 -46.65514 2602 ft 16 kts 332°
2026-05-04 00:15 -23.62952 -46.65557 2603 ft 20 kts 325°
2026-05-04 00:16 -23.62858 -46.65623 2603 ft 16 kts 328°
2026-05-04 00:16 -23.62770 -46.65684 2603 ft 14 kts 328°
2026-05-04 00:16 -23.62704 -46.65729 2602 ft 12 kts 328°
2026-05-04 00:16 -23.62651 -46.65770 2602 ft 6 kts 298°
2026-05-04 00:17 -23.62674 -46.65820 2601 ft 6 kts 237°
2026-05-04 00:17 -23.62686 -46.65840 2601 ft 2 kts 237°
2026-05-04 00:17 -23.62689 -46.65846 2601 ft 0 kts 238°